TimeCDT,TemperatureF,Dew PointF,Humidity,Sea Level PressureIn,VisibilityMPH,Wind Direction,Wind SpeedMPH,Gust SpeedMPH,PrecipitationIn,Events,Conditions,WindDirDegrees,DateUTC
12:53 AM,69.1,66.0,90,29.91,10.0,Calm,Calm,-,N/A,,Overcast,0,2013-09-30 05:53:00
1:53 AM,69.1,66.0,90,29.91,10.0,Calm,Calm,-,N/A,,Overcast,0,2013-09-30 06:53:00
2:53 AM,69.1,66.0,90,29.90,10.0,ENE,4.6,-,N/A,,Overcast,70,2013-09-30 07:53:00
3:53 AM,68.0,64.9,90,29.89,10.0,East,3.5,-,N/A,,Mostly Cloudy,90,2013-09-30 08:53:00
4:02 AM,68.0,64.4,88,29.90,10.0,East,3.5,-,N/A,,Scattered Clouds,90,2013-09-30 09:02:00
4:46 AM,66.2,64.4,94,29.90,10.0,Calm,Calm,-,N/A,,Scattered Clouds,0,2013-09-30 09:46:00
4:53 AM,68.0,66.0,93,29.89,10.0,East,4.6,-,N/A,,Mostly Cloudy,90,2013-09-30 09:53:00
5:10 AM,68.0,66.2,94,29.90,5.0,East,5.8,-,N/A,,Overcast,100,2013-09-30 10:10:00
5:15 AM,68.0,66.2,94,29.90,1.8,East,4.6,-,N/A,,Overcast,90,2013-09-30 10:15:00
5:27 AM,68.0,66.2,94,29.90,0.8,East,4.6,-,N/A,,Mist,90,2013-09-30 10:27:00
5:44 AM,68.0,66.2,94,29.90,1.0,ENE,4.6,-,N/A,,Mist,70,2013-09-30 10:44:00
5:53 AM,68.0,66.9,96,29.89,1.0,East,5.8,-,N/A,,Mist,80,2013-09-30 10:53:00
6:32 AM,68.0,66.2,94,29.90,2.0,East,5.8,-,N/A,,Overcast,80,2013-09-30 11:32:00
6:44 AM,68.0,66.2,94,29.91,4.0,East,5.8,-,N/A,,Overcast,90,2013-09-30 11:44:00
6:53 AM,68.0,66.9,96,29.90,5.0,East,6.9,-,N/A,,Overcast,80,2013-09-30 11:53:00
7:53 AM,69.1,66.9,93,29.90,5.0,ENE,5.8,-,N/A,,Overcast,60,2013-09-30 12:53:00
8:53 AM,70.0,66.9,90,29.91,6.0,East,4.6,-,N/A,,Overcast,80,2013-09-30 13:53:00
9:48 AM,71.6,68.0,88,29.92,9.0,East,5.8,-,N/A,,Overcast,100,2013-09-30 14:48:00
9:53 AM,72.0,68.0,87,29.91,9.0,ESE,4.6,-,N/A,,Overcast,110,2013-09-30 14:53:00
10:11 AM,73.4,66.2,78,29.92,10.0,ESE,8.1,-,N/A,,Overcast,110,2013-09-30 15:11:00
10:53 AM,75.9,66.9,74,29.91,10.0,East,4.6,-,N/A,,Mostly Cloudy,90,2013-09-30 15:53:00
11:53 AM,79.0,66.0,64,29.90,10.0,ESE,6.9,-,N/A,,Mostly Cloudy,110,2013-09-30 16:53:00
12:19 PM,80.6,66.2,61,29.90,10.0,East,5.8,-,N/A,,Mostly Cloudy,100,2013-09-30 17:19:00
12:53 PM,81.0,64.9,58,29.88,10.0,Variable,4.6,-,N/A,,Scattered Clouds,0,2013-09-30 17:53:00
1:53 PM,82.9,63.0,51,29.86,10.0,Variable,4.6,-,N/A,,Scattered Clouds,0,2013-09-30 18:53:00
2:53 PM,84.0,62.1,47,29.84,10.0,SSE,6.9,-,N/A,,Partly Cloudy,160,2013-09-30 19:53:00
3:53 PM,84.9,63.0,48,29.83,10.0,SSE,9.2,-,N/A,,Mostly Cloudy,160,2013-09-30 20:53:00
4:53 PM,82.0,64.0,54,29.83,10.0,SSE,6.9,-,N/A,,Overcast,150,2013-09-30 21:53:00
5:53 PM,81.0,66.0,60,29.84,10.0,SE,4.6,-,N/A,,Overcast,140,2013-09-30 22:53:00
6:53 PM,79.0,68.0,69,29.84,10.0,SE,8.1,-,N/A,,Overcast,130,2013-09-30 23:53:00
7:53 PM,75.9,68.0,76,29.86,10.0,SE,3.5,-,N/A,,Clear,130,2013-10-01 00:53:00
8:53 PM,73.9,68.0,82,29.87,10.0,ESE,3.5,-,N/A,,Partly Cloudy,110,2013-10-01 01:53:00
9:53 PM,73.0,69.1,87,29.88,10.0,East,3.5,-,N/A,,Clear,100,2013-10-01 02:53:00
10:53 PM,72.0,69.1,91,29.89,10.0,East,3.5,-,N/A,,Partly Cloudy,100,2013-10-01 03:53:00
11:53 PM,72.0,68.0,87,29.88,10.0,Calm,Calm,-,N/A,,Clear,0,2013-10-01 04:53:00